• In Russia
  • List of Countries
  • For 7 days
  • Water Temperature
  • Satellite Maps
  • Weather Map
  • Weather Widgets
  • user-avatar
    Login

    Hourly Weather Sydney

    Today, 23 January, Monday

    Time Temperature Precipitation Wind Pressure Humidity
    00:00 +19°C° 0 mm 4 mps 760 mmHg 92%
    01:00 +18°C° 0 mm 4 mps 760 mmHg 94%
    02:00 +18°C° 0 mm 4 mps 760 mmHg 95%
    03:00 +18°C° 0 mm 4 mps 759 mmHg 96%
    04:00 +18°C° 0 mm 4 mps 759 mmHg 97%
    05:00 +19°C° 0 mm 4 mps 759 mmHg 91%
    06:00 +21°C° 0 mm 4 mps 759 mmHg 85%
    07:00 +22°C° 0 mm 4 mps 760 mmHg 79%
    08:00 +26°C° 0 mm 5 mps 759 mmHg 67%
    09:00 +29°C° 0 mm 5 mps 759 mmHg 55%
    10:00 +34°C° 0 mm 4 mps 759 mmHg 44%
    11:00 +35°C° 0 mm 4 mps 758 mmHg 41%
    12:00 +37°C° 0 mm 5 mps 757 mmHg 38%
    13:00 +39°C° 0 mm 6 mps 757 mmHg 35%
    14:00 +39°C° 0 mm 6 mps 756 mmHg 36%
    15:00 +38°C° 0 mm 7 mps 756 mmHg 38%
    16:00 +37°C° 0 mm 8 mps 755 mmHg 39%
    17:00 +35°C° 0 mm 8 mps 755 mmHg 42%
    18:00 +33°C° 0 mm 8 mps 755 mmHg 44%
    19:00 +32°C° 0 mm 7 mps 756 mmHg 47%
    20:00 +30°C° 0 mm 7 mps 756 mmHg 50%
    21:00 +29°C° 0 mm 7 mps 756 mmHg 52%
    22:00 +29°C° 0 mm 8 mps 756 mmHg 50%
    23:00 +28°C° 0 mm 7 mps 755 mmHg 52%

    Tomorrow, 24 January, Tuesday

    Time Temperature Precipitation Wind Pressure Humidity
    00:00 +28°C° 0 mm 6 mps 755 mmHg 53%
    01:00 +27°C° 0 mm 5 mps 755 mmHg 55%
    02:00 +28°C° 0 mm 5 mps 755 mmHg 53%
    03:00 +28°C° 0 mm 5 mps 755 mmHg 51%
    04:00 +29°C° 0 mm 5 mps 754 mmHg 50%
    05:00 +30°C° 0 mm 5 mps 755 mmHg 48%
    06:00 +33°C° 0 mm 5 mps 755 mmHg 45%
    07:00 +34°C° 0 mm 5 mps 755 mmHg 43%
    08:00 +36°C° 0 mm 5 mps 755 mmHg 39%
    09:00 +40°C° 0 mm 5 mps 755 mmHg 34%
    10:00 +42°C° 0 mm 5 mps 755 mmHg 29%
    11:00 +43°C° 0.1 mm 4 mps 755 mmHg 27%
    12:00 +44°C° 0.1 mm 4 mps 755 mmHg 25%
    13:00 +45°C° 0.1 mm 3 mps 755 mmHg 23%
    14:00 +41°C° 1.4 mm 4 mps 755 mmHg 39%
    15:00 +36°C° 1.4 mm 6 mps 755 mmHg 54%
    16:00 +30°C° 1.4 mm 7 mps 756 mmHg 69%
    17:00 +28°C° 1.5 mm 7 mps 757 mmHg 76%
    18:00 +26°C° 1.5 mm 7 mps 758 mmHg 84%
    19:00 +23°C° 1.5 mm 7 mps 760 mmHg 91%
    20:00 +22°C° 0.5 mm 7 mps 761 mmHg 90%
    21:00 +22°C° 0.5 mm 6 mps 762 mmHg 89%
    22:00 +21°C° 0.5 mm 6 mps 762 mmHg 87%
    23:00 +21°C° 0.1 mm 6 mps 763 mmHg 85%

    Day after tomorrow, 25 January, Wednesday

    Time Temperature Precipitation Wind Pressure Humidity
    00:00 +22°C° 0.1 mm 5 mps 763 mmHg 83%
    01:00 +22°C° 0.1 mm 5 mps 763 mmHg 81%
    02:00 +22°C° 0 mm 4 mps 763 mmHg 79%
    03:00 +22°C° 0 mm 4 mps 763 mmHg 77%
    04:00 +22°C° 0 mm 4 mps 763 mmHg 75%
    05:00 +22°C° 0 mm 4 mps 763 mmHg 74%
    06:00 +22°C° 0 mm 3 mps 764 mmHg 73%
    07:00 +22°C° 0 mm 3 mps 764 mmHg 73%
    08:00 +24°C° 0 mm 3 mps 764 mmHg 70%
    09:00 +24°C° 0 mm 2 mps 764 mmHg 66%
    10:00 +25°C° 0 mm 2 mps 764 mmHg 63%
    11:00 +26°C° 0 mm 2 mps 763 mmHg 62%
    12:00 +26°C° 0 mm 2 mps 763 mmHg 60%
    13:00 +27°C° 0 mm 2 mps 762 mmHg 59%
    14:00 +27°C° 0.2 mm 2 mps 762 mmHg 61%
    15:00 +27°C° 0.2 mm 3 mps 761 mmHg 63%
    16:00 +27°C° 0.2 mm 3 mps 761 mmHg 65%
    17:00 +26°C° 0.3 mm 3 mps 761 mmHg 70%
    18:00 +25°C° 0.3 mm 3 mps 761 mmHg 76%
    19:00 +24°C° 0.3 mm 3 mps 761 mmHg 82%
    20:00 +22°C° 0.1 mm 3 mps 761 mmHg 85%
    21:00 +23°C° 0.1 mm 2 mps 761 mmHg 88%
    22:00 +21°C° 0.1 mm 2 mps 761 mmHg 91%
    23:00 +21°C° 0 mm 2 mps 760 mmHg 93%

    26 January, Thursday

    Time Temperature Precipitation Wind Pressure Humidity
    00:00 +22°C° 0 mm 1 mps 760 mmHg 95%
    01:00 +21°C° 0 mm 1 mps 760 mmHg 96%
    02:00 +21°C° 0 mm 1 mps 759 mmHg 96%
    03:00 +21°C° 0 mm 1 mps 759 mmHg 96%
    04:00 +21°C° 0 mm 1 mps 759 mmHg 97%
    05:00 +22°C° 0 mm 1 mps 759 mmHg 94%
    06:00 +23°C° 0 mm 2 mps 759 mmHg 92%
    07:00 +23°C° 0 mm 2 mps 760 mmHg 89%
    08:00 +26°C° 0 mm 2 mps 760 mmHg 79%
    09:00 +28°C° 0 mm 3 mps 760 mmHg 69%
    10:00 +30°C° 0 mm 3 mps 760 mmHg 59%
    11:00 +32°C° 0 mm 4 mps 759 mmHg 58%
    12:00 +32°C° 0 mm 4 mps 759 mmHg 56%
    13:00 +33°C° 0 mm 5 mps 759 mmHg 54%
    14:00 +32°C° 0.1 mm 5 mps 759 mmHg 57%
    15:00 +30°C° 0.1 mm 5 mps 758 mmHg 59%
    16:00 +30°C° 0.1 mm 5 mps 758 mmHg 62%
    17:00 +28°C° 0 mm 5 mps 759 mmHg 69%
    18:00 +27°C° 0 mm 4 mps 760 mmHg 76%
    19:00 +25°C° 0 mm 4 mps 760 mmHg 83%
    20:00 +25°C° 0 mm 4 mps 761 mmHg 85%
    21:00 +25°C° 0 mm 4 mps 761 mmHg 87%
    22:00 +23°C° 0 mm 4 mps 762 mmHg 90%
    23:00 +23°C° 0.1 mm 4 mps 761 mmHg 90%

    27 January, Friday

    Time Temperature Precipitation Wind Pressure Humidity
    00:00 +23°C° 0.1 mm 4 mps 761 mmHg 90%
    01:00 +23°C° 0.1 mm 4 mps 761 mmHg 90%
    02:00 +22°C° 0.1 mm 4 mps 760 mmHg 90%
    03:00 +22°C° 0.1 mm 4 mps 760 mmHg 90%
    04:00 +22°C° 0.1 mm 4 mps 760 mmHg 90%
    05:00 +22°C° 0 mm 3 mps 761 mmHg 89%
    06:00 +22°C° 0 mm 3 mps 761 mmHg 88%
    07:00 +22°C° 0 mm 3 mps 761 mmHg 87%
    08:00 +24°C° 0 mm 3 mps 761 mmHg 83%
    09:00 +25°C° 0 mm 2 mps 761 mmHg 79%
    10:00 +26°C° 0 mm 2 mps 761 mmHg 75%
    11:00 +27°C° 0 mm 2 mps 761 mmHg 72%
    12:00 +28°C° 0 mm 2 mps 760 mmHg 69%
    13:00 +29°C° 0 mm 2 mps 760 mmHg 66%
    14:00 +29°C° 0 mm 3 mps 759 mmHg 64%
    15:00 +30°C° 0 mm 3 mps 759 mmHg 63%
    16:00 +30°C° 0 mm 4 mps 758 mmHg 61%
    17:00 +29°C° 0 mm 4 mps 758 mmHg 68%
    18:00 +27°C° 0 mm 4 mps 759 mmHg 75%
    19:00 +26°C° 0 mm 3 mps 759 mmHg 82%
    20:00 +25°C° 0 mm 4 mps 759 mmHg 87%
    21:00 +23°C° 0 mm 4 mps 759 mmHg 92%
    22:00 +22°C° 0 mm 4 mps 759 mmHg 97%
    23:00 +22°C° 0 mm 4 mps 759 mmHg 97%

    28 January, Saturday

    Time Temperature Precipitation Wind Pressure Humidity
    00:00 +22°C° 0 mm 4 mps 758 mmHg 98%
    01:00 +21°C° 0 mm 4 mps 758 mmHg 99%
    02:00 +21°C° 0 mm 3 mps 758 mmHg 99%
    03:00 +21°C° 0 mm 3 mps 758 mmHg 99%
    04:00 +21°C° 0 mm 3 mps 758 mmHg 99%
    05:00 +22°C° 0 mm 3 mps 758 mmHg 95%
    06:00 +23°C° 0 mm 4 mps 759 mmHg 91%
    07:00 +25°C° 0 mm 4 mps 759 mmHg 87%
    08:00 +28°C° 0 mm 4 mps 759 mmHg 73%
    09:00 +31°C° 0 mm 3 mps 759 mmHg 59%
    10:00 +35°C° 0 mm 3 mps 759 mmHg 45%
    11:00 +37°C° 0 mm 4 mps 758 mmHg 38%
    12:00 +40°C° 0 mm 4 mps 757 mmHg 32%
    13:00 +42°C° 0 mm 5 mps 757 mmHg 25%
    14:00 +40°C° 0 mm 5 mps 756 mmHg 32%
    15:00 +37°C° 0 mm 5 mps 756 mmHg 39%
    16:00 +35°C° 0 mm 6 mps 756 mmHg 46%
    17:00 +33°C° 0 mm 6 mps 756 mmHg 51%
    18:00 +32°C° 0 mm 6 mps 757 mmHg 56%
    19:00 +30°C° 0 mm 6 mps 757 mmHg 61%
    20:00 +29°C° 0 mm 5 mps 758 mmHg 63%
    21:00 +29°C° 0 mm 5 mps 758 mmHg 65%
    22:00 +28°C° 0 mm 5 mps 759 mmHg 67%
    23:00 +27°C° 0.1 mm 5 mps 759 mmHg 74%
    Show more